EW2975 Weather Reports


Display with metric or nautical units.
time (UTC)temp
F
wind
direction
speed
MPH
gust
MPH
rain 1hr
in
rain 24hr
in
rain mn
in
humidity
%
barometer
mb
20260505171104 80 206 10.0 23.0 0.00 0.00 0.00 70 1006.9
20260505171005 80 206 11.0 19.0 0.00 0.00 0.00 70 1006.9
20260505170904 80 205 11.0 19.0 0.00 0.00 0.00 70 1006.9
20260505170805 80 205 11.0 19.0 0.00 0.00 0.00 70 1006.9
20260505170704 80 206 11.0 19.0 0.00 0.00 0.00 70 1006.9
20260505170605 80 203 11.0 19.0 0.00 0.00 0.00 70 1006.9
20260505170504 80 202 11.0 19.0 0.00 0.00 0.00 69 1006.9
20260505170405 80 201 11.0 19.0 0.00 0.00 0.00 69 1006.9
20260505170305 80 201 11.0 19.0 0.00 0.00 0.00 70 1006.9
20260505170205 80 200 11.0 19.0 0.00 0.00 0.00 71 1006.9
20260505170105 80 200 11.0 19.0 0.00 0.00 0.00 71 1006.9
20260505165905 80 198 11.0 19.0 0.00 0.00 0.00 71 1007.0
20260505165806 80 198 11.0 19.0 0.00 0.00 0.00 71 1007.0
20260505165704 80 197 11.0 19.0 0.00 0.00 0.00 71 1007.0
20260505165605 79 195 11.0 19.0 0.00 0.00 0.00 71 1007.0
20260505165505 80 196 10.0 19.0 0.00 0.00 0.00 71 1007.0
20260505165404 80 194 11.0 18.0 0.00 0.00 0.00 71 1007.0
20260505165306 80 194 11.0 18.0 0.00 0.00 0.00 72 1007.0
20260505165205 80 193 10.0 18.0 0.00 0.00 0.00 72 1007.0
20260505165105 80 192 10.0 17.0 0.00 0.00 0.00 72 1007.0
20260505165005 80 193 10.0 17.0 0.00 0.00 0.00 72 1006.9
20260505164904 80 199 10.0 17.0 0.00 0.00 0.00 72 1006.9
20260505164804 79 200 11.0 18.0 0.00 0.00 0.00 72 1007.0
20260505164705 79 200 10.0 18.0 0.00 0.00 0.00 71 1007.0
20260505164604 79 201 11.0 18.0 0.00 0.00 0.00 73 1007.0
20260505164505 79 200 11.0 18.0 0.00 0.00 0.00 71 1007.0
20260505164405 79 202 10.0 18.0 0.00 0.00 0.00 72 1007.0
20260505164306 79 203 10.0 18.0 0.00 0.00 0.00 72 1007.0
20260505164205 79 204 11.0 18.0 0.00 0.00 0.00 72 1007.0
20260505164104 79 206 11.0 18.0 0.00 0.00 0.00 72 1006.9
20260505164005 79 207 11.0 19.0 0.00 0.00 0.00 71 1007.0
20260505163905 79 207 11.0 23.0 0.00 0.00 0.00 71 1006.9
20260505163805 80 208 10.0 23.0 0.00 0.00 0.00 71 1006.9
20260505163705 79 209 11.0 23.0 0.00 0.00 0.00 71 1006.9
20260505163605 79 211 10.0 23.0 0.00 0.00 0.00 73 1007.1
20260505163504 79 214 11.0 23.0 0.00 0.00 0.00 73 1007.0
20260505163304 78 214 11.0 23.0 0.00 0.00 0.00 73 1007.1
20260505163205 78 213 11.0 23.0 0.00 0.00 0.00 72 1007.0
20260505163104 79 212 11.0 23.0 0.00 0.00 0.00 72 1007.1
20260505163006 79 211 10.0 23.0 0.00 0.00 0.00 72 1007.1
20260505162905 79 209 10.0 18.0 0.00 0.00 0.00 73 1007.1
20260505162805 78 207 10.0 18.0 0.00 0.00 0.00 72 1007.1
20260505162705 78 206 10.0 18.0 0.00 0.00 0.00 72 1007.0
20260505162605 79 206 10.0 18.0 0.00 0.00 0.00 72 1007.1
20260505162505 79 204 9.0 18.0 0.00 0.00 0.00 71 1007.1
20260505162404 79 205 9.0 18.0 0.00 0.00 0.00 72 1007.1
20260505162307 79 206 9.0 17.0 0.00 0.00 0.00 73 1007.1
20260505162204 78 205 9.0 17.0 0.00 0.00 0.00 74 1007.1
20260505162104 78 204 8.0 17.0 0.00 0.00 0.00 74 1007.1
20260505162005 78 205 9.0 17.0 0.00 0.00 0.00 74 1007.1
20260505161904 78 207 9.0 17.0 0.00 0.00 0.00 74 1007.2
20260505161805 78 208 9.0 17.0 0.00 0.00 0.00 74 1007.2
20260505161605 77 206 10.0 17.0 0.00 0.00 0.00 74 1007.2
20260505161405 77 204 10.0 20.0 0.00 0.00 0.00 74 1007.2
20260505161305 77 202 11.0 20.0 0.00 0.00 0.00 75 1007.3
20260505161204 77 204 11.0 20.0 0.00 0.00 0.00 75 1007.3
20260505161104 77 205 11.0 20.0 0.00 0.00 0.00 75 1007.3
20260505161005 77 205 11.0 20.0 0.00 0.00 0.00 75 1007.3
20260505160904 76 205 11.0 20.0 0.00 0.00 0.00 75 1007.3
20260505160805 77 204 11.0 20.0 0.00 0.00 0.00 75 1007.3
20260505160704 76 202 11.0 20.0 0.00 0.00 0.00 75 1007.3
20260505160605 76 202 10.0 20.0 0.00 0.00 0.00 75 1007.3
20260505160504 76 202 9.0 20.0 0.00 0.00 0.00 75 1007.3
20260505160405 76 201 9.0 19.0 0.00 0.00 0.00 75 1007.3
20260505160306 76 199 8.0 19.0 0.00 0.00 0.00 75 1007.3
20260505160206 77 198 8.0 15.0 0.00 0.00 0.00 76 1007.3
20260505160104 76 197 8.0 15.0 0.00 0.00 0.00 76 1007.2
20260505153204 75 207 10.0 19.0 0.00 0.00 0.00 78 1007.1
20260505153105 75 205 10.0 19.0 0.00 0.00 0.00 78 1007.1
20260505153005 75 205 10.0 19.0 0.00 0.00 0.00 78 1007.1
20260505152905 75 200 10.0 19.0 0.00 0.00 0.00 77 1007.2
20260505152704 76 196 9.0 19.0 0.00 0.00 0.00 77 1007.1
20260505152605 76 195 8.0 16.0 0.00 0.00 0.00 77 1007.1
20260505152505 76 197 8.0 16.0 0.00 0.00 0.00 78 1007.1
20260505152405 76 199 9.0 16.0 0.00 0.00 0.00 78 1007.1
20260505152205 75 202 9.0 18.0 0.00 0.00 0.00 78 1007.1
20260505152104 75 203 9.0 18.0 0.00 0.00 0.00 79 1007.2
20260505152005 75 204 9.0 18.0 0.00 0.00 0.00 79 1007.1
20260505151804 75 206 9.0 18.0 0.00 0.00 0.00 79 1007.1
20260505151705 75 207 9.0 18.0 0.00 0.00 0.00 79 1007.2
20260505151604 75 208 9.0 18.0 0.00 0.00 0.00 79 1007.3
20260505151505 75 208 9.0 18.0 0.00 0.00 0.00 79 1007.2
20260505151404 75 209 9.0 18.0 0.00 0.00 0.00 79 1007.2
20260505151304 75 207 9.0 16.0 0.00 0.00 0.00 79 1007.2
20260505151204 74 206 9.0 16.0 0.00 0.00 0.00 79 1007.2
20260505151106 74 207 9.0 16.0 0.00 0.00 0.00 79 1007.1
20260505150904 74 208 9.0 16.0 0.00 0.00 0.00 80 1007.2
20260505150806 74 207 8.0 16.0 0.00 0.00 0.00 79 1007.2
20260505150505 74 204 8.0 17.0 0.00 0.00 0.00 79 1007.1
20260505150404 74 203 8.0 17.0 0.00 0.00 0.00 80 1007.1
20260505150305 74 205 8.0 17.0 0.00 0.00 0.00 80 1007.1
20260505150205 74 206 8.0 17.0 0.00 0.00 0.00 80 1007.1
20260505150104 74 207 8.0 17.0 0.00 0.00 0.00 80 1007.2
20260505140404 72 202 9.0 16.0 0.00 0.00 0.00 83 1006.8
20260505140305 72 201 9.0 16.0 0.00 0.00 0.00 83 1006.7
20260505140104 72 199 9.0 16.0 0.00 0.00 0.00 83 1006.7
20260505130305 71 187 7.0 15.0 0.00 0.00 0.00 84 1006.3
20260505130204 71 185 7.0 15.0 0.00 0.00 0.00 84 1006.4
20260505125004 71 179 6.0 12.0 0.00 0.00 0.00 84 1006.2
20260505124904 71 178 7.0 12.0 0.00 0.00 0.00 84 1006.1
20260505124804 71 179 6.0 12.0 0.00 0.00 0.00 84 1006.1
20260505124604 71 179 7.0 12.0 0.00 0.00 0.00 85 1006.0
20260505124504 71 179 7.0 12.0 0.00 0.00 0.00 84 1006.0
20260505124304 71 177 7.0 12.0 0.00 0.00 0.00 85 1006.0
20260505124204 71 176 7.0 12.0 0.00 0.00 0.00 85 1006.0
20260505124104 71 176 7.0 12.0 0.00 0.00 0.00 85 1006.0
20260505124006 71 177 7.0 12.0 0.00 0.00 0.00 85 1006.0
20260505123904 71 177 7.0 12.0 0.00 0.00 0.00 85 1006.0
20260505123804 71 178 7.0 11.0 0.00 0.00 0.00 85 1005.9
20260505123505 71 184 6.0 11.0 0.00 0.00 0.00 85 1005.9
20260505123404 71 184 6.0 10.0 0.00 0.00 0.00 85 1005.9
20260505123305 71 186 6.0 10.0 0.00 0.00 0.00 85 1005.9
20260505123204 71 188 6.0 10.0 0.00 0.00 0.00 85 1005.9
20260505123104 71 188 6.0 10.0 0.00 0.00 0.00 85 1005.8
20260505123005 71 188 6.0 10.0 0.00 0.00 0.00 85 1005.8
20260505122904 71 185 6.0 10.0 0.00 0.00 0.00 85 1005.9
20260505122805 71 186 6.0 10.0 0.00 0.00 0.00 85 1005.8
20260505122704 71 186 6.0 10.0 0.00 0.00 0.00 85 1005.9
20260505122604 71 183 6.0 10.0 0.00 0.00 0.00 85 1005.9
20260505122505 71 182 6.0 10.0 0.00 0.00 0.00 85 1005.8
20260505122404 71 181 6.0 10.0 0.00 0.00 0.00 85 1005.9
20260505122306 71 178 6.0 10.0 0.00 0.00 0.00 85 1005.9
20260505122205 71 177 6.0 10.0 0.00 0.00 0.00 85 1005.8
20260505122105 71 177 6.0 10.0 0.00 0.00 0.00 85 1005.8
20260505121905 71 179 5.0 10.0 0.00 0.00 0.00 85 1005.7
20260505121804 71 178 5.0 9.0 0.00 0.00 0.00 85 1005.7
20260505121604 71 176 5.0 8.0 0.00 0.00 0.00 85 1005.7
20260505121504 71 177 5.0 8.0 0.00 0.00 0.00 85 1005.6
20260505121405 71 179 5.0 9.0 0.00 0.00 0.00 85 1005.6
20260505121304 71 178 5.0 9.0 0.00 0.00 0.00 85 1005.6
20260505121205 71 177 5.0 9.0 0.00 0.00 0.00 85 1005.6
20260505121004 71 175 6.0 9.0 0.00 0.00 0.00 85 1005.6
20260505120904 71 175 6.0 9.0 0.00 0.00 0.00 85 1005.6
20260505120805 71 174 6.0 9.0 0.00 0.00 0.00 85 1005.6
20260505120704 71 173 6.0 10.0 0.00 0.00 0.00 85 1005.6
20260505120604 71 173 6.0 10.0 0.00 0.00 0.00 85 1005.6
20260505120504 71 172 6.0 10.0 0.00 0.00 0.00 85 1005.6
20260505120405 71 171 6.0 10.0 0.00 0.00 0.00 85 1005.6
20260505120304 71 170 6.0 10.0 0.00 0.00 0.00 85 1005.5
20260505120105 71 169 6.0 10.0 0.00 0.00 0.00 85 1005.6
20260505120005 71 170 6.0 10.0 0.00 0.00 0.00 85 1005.5
20260505115905 71 169 6.0 10.0 0.00 0.00 0.00 85 1005.5
20260505115804 71 171 6.0 11.0 0.00 0.00 0.00 85 1005.5
20260505115705 71 172 6.0 11.0 0.00 0.00 0.00 85 1005.5
20260505115604 71 174 6.0 11.0 0.00 0.00 0.00 85 1005.4
20260505115305 71 175 5.0 11.0 0.00 0.00 0.00 85 1005.4
20260505115204 71 176 5.0 11.0 0.00 0.00 0.00 85 1005.3
20260505115104 71 177 5.0 11.0 0.00 0.00 0.00 85 1005.3
20260505115005 71 176 6.0 11.0 0.00 0.00 0.00 85 1005.3
20260505114905 71 177 6.0 11.0 0.00 0.00 0.00 85 1005.4
20260505114804 71 176 6.0 9.0 0.00 0.00 0.00 85 1005.4
20260505114704 71 175 6.0 11.0 0.00 0.00 0.00 85 1005.4
20260505114605 71 174 6.0 11.0 0.00 0.00 0.00 85 1005.5
20260505114504 71 175 6.0 11.0 0.00 0.00 0.00 85 1005.5
20260505114403 71 175 6.0 12.0 0.00 0.00 0.00 85 1005.6
20260505114304 71 177 7.0 12.0 0.00 0.00 0.00 85 1005.6
20260505114105 71 176 6.0 12.0 0.00 0.00 0.00 85 1005.6
20260505114005 71 178 7.0 12.0 0.00 0.00 0.00 85 1005.6
20260505113904 70 177 7.0 12.0 0.00 0.00 0.00 85 1005.6
20260505113804 70 176 7.0 12.0 0.00 0.00 0.00 85 1005.5
20260505113704 70 177 7.0 12.0 0.00 0.00 0.00 85 1005.5
20260505113604 70 176 7.0 12.0 0.00 0.00 0.00 85 1005.5
20260505113405 70 176 7.0 11.0 0.00 0.00 0.00 85 1005.5
20260505113305 70 174 7.0 11.0 0.00 0.00 0.00 85 1005.5
20260505113204 70 172 7.0 11.0 0.00 0.00 0.00 85 1005.4
20260505113105 70 173 7.0 11.0 0.00 0.00 0.00 85 1005.4
20260505113004 70 172 6.0 11.0 0.00 0.00 0.00 85 1005.4
20260505112804 70 174 6.0 11.0 0.00 0.00 0.00 85 1005.3
20260505112704 70 174 6.0 11.0 0.00 0.00 0.00 85 1005.3
20260505112604 70 174 6.0 9.0 0.00 0.00 0.00 85 1005.3
20260505112504 70 174 5.0 9.0 0.00 0.00 0.00 85 1005.3
20260505112404 70 176 5.0 9.0 0.00 0.00 0.00 85 1005.3
20260505112305 71 177 6.0 9.0 0.00 0.00 0.00 85 1005.3
20260505112204 71 178 6.0 9.0 0.00 0.00 0.00 85 1005.4
20260505112105 71 177 6.0 9.0 0.00 0.00 0.00 85 1005.4
20260505112004 71 178 6.0 9.0 0.00 0.00 0.00 85 1005.5
20260505111905 70 179 6.0 9.0 0.00 0.00 0.00 85 1005.5
20260505111804 70 181 6.0 9.0 0.00 0.00 0.00 85 1005.5
20260505111604 71 183 6.0 10.0 0.00 0.00 0.00 85 1005.5
20260505111505 71 183 6.0 11.0 0.00 0.00 0.00 85 1005.5
20260505111405 71 182 6.0 11.0 0.00 0.00 0.00 85 1005.4
20260505111305 71 183 6.0 11.0 0.00 0.00 0.00 85 1005.4
20260505111204 71 185 6.0 11.0 0.00 0.00 0.00 85 1005.4
20260505111105 71 186 6.0 11.0 0.00 0.00 0.00 85 1005.4
20260505111004 71 185 6.0 11.0 0.00 0.00 0.00 85 1005.5
20260505110804 71 183 7.0 11.0 0.00 0.00 0.00 85 1005.7
20260505110705 71 184 7.0 14.0 0.00 0.00 0.00 85 1005.7
20260505110604 71 184 7.0 14.0 0.00 0.00 0.00 85 1005.6
20260505110505 71 183 7.0 14.0 0.00 0.00 0.00 85 1005.6
20260505110404 71 182 8.0 14.0 0.00 0.00 0.00 85 1005.6
20260505110204 71 179 8.0 14.0 0.00 0.00 0.00 85 1005.6
20260505102204 71 188 9.0 16.0 0.00 0.00 0.00 84 1005.3
20260505102104 71 187 8.0 16.0 0.00 0.00 0.00 84 1005.3
20260505102004 71 187 8.0 16.0 0.00 0.00 0.00 84 1005.3
20260505101905 71 186 8.0 16.0 0.00 0.00 0.00 84 1005.3
20260505101803 71 186 8.0 16.0 0.00 0.00 0.00 84 1005.3
20260505101704 71 186 8.0 16.0 0.00 0.00 0.00 84 1005.3
20260505101505 71 187 8.0 16.0 0.00 0.00 0.00 84 1005.3
20260505101404 71 188 8.0 13.0 0.00 0.00 0.00 84 1005.3
20260505101204 71 190 8.0 13.0 0.00 0.00 0.00 84 1005.3
20260505101104 71 191 9.0 14.0 0.00 0.00 0.00 84 1005.3
20260505101004 71 189 9.0 16.0 0.00 0.00 0.00 84 1005.4
20260505100804 71 191 9.0 16.0 0.00 0.00 0.00 84 1005.4
20260505100505 71 189 10.0 20.0 0.00 0.00 0.00 83 1005.4
20260505100404 71 189 10.0 20.0 0.00 0.00 0.00 83 1005.4
20260505100305 71 188 10.0 20.0 0.00 0.00 0.00 83 1005.4
20260505100204 71 188 10.0 20.0 0.00 0.00 0.00 83 1005.4
20260505100106 71 188 10.0 20.0 0.00 0.00 0.00 83 1005.4
20260505100004 71 189 10.0 20.0 0.00 0.00 0.00 83 1005.4
20260505095804 71 189 10.0 20.0 0.00 0.00 0.00 83 1005.5
20260505095704 71 190 10.0 18.0 0.00 0.00 0.00 83 1005.5
20260505095604 71 190 10.0 18.0 0.00 0.00 0.00 83 1005.6
20260505095404 71 191 10.0 18.0 0.00 0.00 0.00 83 1005.6
20260505095305 71 191 10.0 18.0 0.00 0.00 0.00 83 1005.6
20260505095104 71 192 10.0 17.0 0.00 0.00 0.00 83 1005.5
20260505095004 71 192 10.0 17.0 0.00 0.00 0.00 83 1005.5
20260505094905 71 192 10.0 17.0 0.00 0.00 0.00 83 1005.5
20260505094804 71 192 10.0 17.0 0.00 0.00 0.00 83 1005.4
20260505094704 71 190 10.0 17.0 0.00 0.00 0.00 83 1005.4
20260505094604 71 191 11.0 18.0 0.00 0.00 0.00 83 1005.4
20260505094504 71 191 11.0 18.0 0.00 0.00 0.00 83 1005.4
20260505094403 71 189 10.0 18.0 0.00 0.00 0.00 83 1005.4
20260505094304 71 189 10.0 18.0 0.00 0.00 0.00 83 1005.4
20260505094204 71 190 10.0 18.0 0.00 0.00 0.00 83 1005.4
20260505094104 71 189 10.0 18.0 0.00 0.00 0.00 83 1005.4
20260505094004 71 189 10.0 18.0 0.00 0.00 0.00 83 1005.4
20260505093904 71 189 10.0 18.0 0.00 0.00 0.00 83 1005.4
20260505093704 71 190 10.0 18.0 0.00 0.00 0.00 83 1005.5
20260505093604 71 190 10.0 17.0 0.00 0.00 0.00 83 1005.4
20260505093404 71 191 10.0 17.0 0.00 0.00 0.00 83 1005.4
20260505093204 71 190 10.0 17.0 0.00 0.00 0.00 83 1005.5
20260505093004 71 191 10.0 17.0 0.00 0.00 0.00 83 1005.5
20260505092904 71 191 10.0 17.0 0.00 0.00 0.00 83 1005.5
20260505092704 71 191 9.0 17.0 0.00 0.00 0.00 83 1005.4
20260505092604 71 190 10.0 17.0 0.00 0.00 0.00 83 1005.5
20260505092504 71 189 10.0 17.0 0.00 0.00 0.00 83 1005.5
20260505092305 71 190 10.0 21.0 0.00 0.00 0.00 83 1005.4
20260505092204 71 190 10.0 21.0 0.00 0.00 0.00 83 1005.5
20260505092104 71 189 10.0 21.0 0.00 0.00 0.00 83 1005.5
20260505092004 71 190 11.0 21.0 0.00 0.00 0.00 83 1005.5
20260505091804 71 190 10.0 21.0 0.00 0.00 0.00 83 1005.6
20260505091705 71 190 11.0 21.0 0.00 0.00 0.00 83 1005.7
20260505091604 71 191 11.0 21.0 0.00 0.00 0.00 83 1005.7
20260505091505 71 191 11.0 21.0 0.00 0.00 0.00 83 1005.8
20260505091404 71 191 10.0 18.0 0.00 0.00 0.00 83 1005.8
20260505091306 71 192 11.0 18.0 0.00 0.00 0.00 83 1005.8
20260505091204 71 193 11.0 18.0 0.00 0.00 0.00 83 1005.8
20260505091004 71 195 9.0 18.0 0.00 0.00 0.00 83 1005.8
20260505090904 71 195 9.0 18.0 0.00 0.00 0.00 83 1005.7
20260505090704 71 196 8.0 18.0 0.00 0.00 0.00 83 1005.6
20260505090505 71 199 8.0 15.0 0.00 0.00 0.00 83 1005.6
20260505090404 71 200 9.0 15.0 0.00 0.00 0.00 83 1005.7
20260505090305 71 197 8.0 15.0 0.00 0.00 0.00 83 1005.8
20260505090204 71 196 8.0 15.0 0.00 0.00 0.00 83 1005.8
20260505090004 71 195 9.0 16.0 0.00 0.00 0.00 83 1005.8
20260505085904 71 195 9.0 16.0 0.00 0.00 0.00 83 1005.8
20260505085803 71 193 9.0 16.0 0.00 0.00 0.00 83 1005.7
20260505085704 71 195 9.0 16.0 0.00 0.00 0.00 83 1005.7
20260505085504 71 195 9.0 19.0 0.00 0.00 0.00 83 1005.8
20260505085404 71 195 9.0 19.0 0.00 0.00 0.00 83 1005.8
20260505085305 71 197 9.0 19.0 0.00 0.00 0.00 83 1005.8
20260505085204 71 196 9.0 19.0 0.00 0.00 0.00 83 1005.8
20260505085105 71 196 9.0 19.0 0.00 0.00 0.00 83 1005.8
20260505085004 71 195 10.0 19.0 0.00 0.00 0.00 83 1005.9
20260505084904 71 195 10.0 19.0 0.00 0.00 0.00 83 1005.9
20260505084803 71 196 10.0 19.0 0.00 0.00 0.00 83 1006.0
20260505084704 71 196 10.0 19.0 0.00 0.00 0.00 83 1006.0
20260505084604 71 196 9.0 19.0 0.00 0.00 0.00 83 1005.9
20260505084504 71 196 9.0 19.0 0.00 0.00 0.00 83 1005.9
20260505084404 71 195 9.0 16.0 0.00 0.00 0.00 83 1005.9
20260505084305 71 195 9.0 16.0 0.00 0.00 0.00 83 1005.9
20260505084104 71 195 9.0 16.0 0.00 0.00 0.00 83 1005.9
20260505084004 71 196 9.0 17.0 0.00 0.00 0.00 83 1005.8
20260505083905 71 197 9.0 17.0 0.00 0.00 0.00 83 1005.8
20260505083804 71 195 9.0 17.0 0.00 0.00 0.00 83 1005.9
20260505083704 71 195 8.0 17.0 0.00 0.00 0.00 83 1005.9
20260505083604 71 194 9.0 17.0 0.00 0.00 0.00 83 1005.9
20260505083504 71 193 9.0 17.0 0.00 0.00 0.00 83 1006.0
20260505083403 71 192 9.0 17.0 0.00 0.00 0.00 83 1006.0
20260505083204 71 190 9.0 17.0 0.00 0.00 0.00 83 1006.1
20260505083105 71 189 9.0 17.0 0.00 0.00 0.00 83 1006.1
20260505083004 71 188 9.0 16.0 0.00 0.00 0.00 83 1006.2
20260505082905 71 186 9.0 16.0 0.00 0.00 0.00 83 1006.1
20260505082804 71 186 9.0 16.0 0.00 0.00 0.00 83 1006.1
20260505082704 71 186 9.0 16.0 0.00 0.00 0.00 83 1006.0
20260505082604 71 185 9.0 16.0 0.00 0.00 0.00 83 1006.0
20260505082505 71 186 9.0 16.0 0.00 0.00 0.00 83 1006.1
20260505082404 71 186 9.0 16.0 0.00 0.00 0.00 83 1006.1
20260505082304 71 188 9.0 16.0 0.00 0.00 0.00 83 1006.2
20260505082204 71 188 9.0 15.0 0.00 0.00 0.00 83 1006.1
20260505082104 71 190 9.0 15.0 0.00 0.00 0.00 83 1006.2
20260505082004 71 190 9.0 15.0 0.00 0.00 0.00 83 1006.2
20260505081904 71 190 9.0 15.0 0.00 0.00 0.00 83 1006.2
20260505081603 71 192 9.0 15.0 0.00 0.00 0.00 83 1006.4
20260505081204 71 191 10.0 16.0 0.00 0.00 0.00 83 1006.3
20260505081104 71 190 10.0 16.0 0.00 0.00 0.00 83 1006.3
20260505081003 71 190 10.0 16.0 0.00 0.00 0.00 83 1006.3
20260505080804 71 190 10.0 16.0 0.00 0.00 0.00 82 1006.4
20260505080704 71 191 10.0 16.0 0.00 0.00 0.00 83 1006.4
20260505080604 71 190 10.0 16.0 0.00 0.00 0.00 82 1006.4
20260505080404 71 188 9.0 17.0 0.00 0.00 0.00 82 1006.4
20260505080204 71 189 9.0 17.0 0.00 0.00 0.00 82 1006.4
20260505080104 71 189 9.0 17.0 0.00 0.00 0.00 82 1006.4
20260505080004 71 189 9.0 17.0 0.00 0.00 0.00 82 1006.4
20260505075904 71 189 9.0 17.0 0.00 0.00 0.00 82 1006.4
20260505075804 71 190 8.0 17.0 0.00 0.00 0.00 82 1006.4
20260505075704 71 190 8.0 17.0 0.00 0.00 0.00 82 1006.3
20260505075604 71 190 8.0 17.0 0.00 0.00 0.00 82 1006.4
20260505075504 71 190 8.0 17.0 0.00 0.00 0.00 82 1006.4
20260505075404 71 190 9.0 17.0 0.00 0.00 0.00 82 1006.4
20260505075304 71 189 9.0 17.0 0.00 0.00 0.00 82 1006.4
20260505075204 71 189 9.0 17.0 0.00 0.00 0.00 82 1006.4
20260505075104 71 189 9.0 17.0 0.00 0.00 0.00 82 1006.4
20260505075005 71 190 9.0 17.0 0.00 0.00 0.00 82 1006.5
20260505074904 71 190 9.0 17.0 0.00 0.00 0.00 82 1006.5
20260505074803 71 190 8.0 17.0 0.00 0.00 0.00 82 1006.6
20260505074704 71 188 8.0 17.0 0.00 0.00 0.00 82 1006.6
20260505074603 71 188 8.0 17.0 0.00 0.00 0.00 82 1006.6
20260505074504 71 188 8.0 14.0 0.00 0.00 0.00 82 1006.6
20260505074205 71 187 9.0 18.0 0.00 0.00 0.00 82 1006.6
20260505074104 71 186 9.0 18.0 0.00 0.00 0.00 82 1006.6
20260505074004 71 184 9.0 18.0 0.00 0.00 0.00 82 1006.6
20260505073704 71 186 10.0 18.0 0.00 0.00 0.00 82 1006.6
20260505073604 71 185 10.0 18.0 0.00 0.00 0.00 82 1006.6
20260505073504 71 185 10.0 18.0 0.00 0.00 0.00 82 1006.6
20260505073405 71 184 11.0 20.0 0.00 0.00 0.00 82 1006.6
20260505073304 71 186 11.0 20.0 0.00 0.00 0.00 82 1006.7
20260505073204 71 185 11.0 20.0 0.00 0.00 0.00 82 1006.7
20260505073104 71 186 11.0 20.0 0.00 0.00 0.00 82 1006.7
20260505073004 71 186 11.0 20.0 0.00 0.00 0.00 82 1006.6
20260505072904 71 186 11.0 20.0 0.00 0.00 0.00 82 1006.7
20260505072804 71 186 11.0 20.0 0.00 0.00 0.00 82 1006.7
20260505072704 71 184 11.0 20.0 0.00 0.00 0.00 82 1006.8
20260505072604 71 186 10.0 20.0 0.00 0.00 0.00 82 1006.8
20260505072505 71 187 10.0 20.0 0.00 0.00 0.00 82 1006.8
20260505072404 71 187 10.0 20.0 0.00 0.00 0.00 82 1006.7
20260505072305 71 186 10.0 18.0 0.00 0.00 0.00 82 1006.7
20260505072204 71 186 10.0 18.0 0.00 0.00 0.00 82 1006.8
20260505072104 72 186 10.0 18.0 0.00 0.00 0.00 82 1006.8
20260505072004 71 186 10.0 18.0 0.00 0.00 0.00 82 1006.8
20260505071904 72 185 10.0 18.0 0.00 0.00 0.00 82 1006.9
20260505071805 72 187 11.0 18.0 0.00 0.00 0.00 82 1006.9
20260505071604 72 187 11.0 18.0 0.00 0.00 0.00 82 1007.0
20260505071504 72 187 11.0 18.0 0.00 0.00 0.00 82 1006.9
20260505071404 72 189 11.0 18.0 0.00 0.00 0.00 82 1006.9
20260505071304 72 189 11.0 18.0 0.00 0.00 0.00 81 1006.9
20260505071204 72 190 11.0 18.0 0.00 0.00 0.00 81 1006.9
20260505071104 72 188 11.0 18.0 0.00 0.00 0.00 81 1006.8
20260505071003 72 188 11.0 18.0 0.00 0.00 0.00 81 1006.9
20260505070904 72 190 10.0 18.0 0.00 0.00 0.00 81 1006.9
20260505070803 72 189 10.0 17.0 0.00 0.00 0.00 81 1006.9
20260505070704 72 189 10.0 17.0 0.00 0.00 0.00 81 1007.0
20260505070504 72 189 9.0 17.0 0.00 0.00 0.00 81 1007.1
20260505070304 72 188 9.0 17.0 0.00 0.00 0.00 81 1007.0
20260505070204 72 189 9.0 17.0 0.00 0.00 0.00 81 1007.0
20260505070104 72 192 9.0 15.0 0.00 0.00 0.00 81 1007.1
20260505070004 72 191 9.0 15.0 0.00 0.00 0.00 81 1007.1
20260505065805 72 190 9.0 19.0 0.00 0.00 0.00 81 1007.1
20260505065504 72 189 10.0 19.0 0.00 0.00 0.00 81 1007.1
20260505065404 72 189 10.0 19.0 0.00 0.00 0.00 81 1007.2
20260505065204 72 189 10.0 19.0 0.00 0.00 0.00 81 1007.1
20260505065103 72 188 10.0 19.0 0.00 0.00 0.00 81 1007.1
20260505064903 72 189 10.0 21.0 0.00 0.00 0.00 81 1007.1
20260505064804 72 190 10.0 21.0 0.00 0.00 0.00 81 1007.1
20260505064705 72 190 10.0 21.0 0.00 0.00 0.00 81 1007.1
20260505064604 72 190 10.0 21.0 0.00 0.00 0.00 81 1007.2
20260505064504 72 189 10.0 21.0 0.00 0.00 0.00 81 1007.2
20260505064404 72 186 10.0 21.0 0.00 0.00 0.00 81 1007.2
20260505064304 72 185 10.0 21.0 0.00 0.00 0.00 81 1007.2
20260505064204 72 183 10.0 21.0 0.00 0.00 0.00 81 1007.2
20260505064103 72 182 10.0 21.0 0.00 0.00 0.00 81 1007.2
20260505064004 72 183 10.0 21.0 0.00 0.00 0.00 81 1007.2
20260505063804 72 179 10.0 18.0 0.00 0.00 0.00 81 1007.1
20260505063705 72 179 10.0 18.0 0.00 0.00 0.00 81 1007.1
20260505063604 72 179 10.0 18.0 0.00 0.00 0.00 81 1007.1
20260505063505 72 179 9.0 17.0 0.00 0.00 0.00 81 1007.1
20260505063404 72 181 9.0 17.0 0.00 0.00 0.00 81 1007.1
20260505063303 72 183 9.0 17.0 0.00 0.00 0.00 81 1007.1
20260505063204 72 184 9.0 17.0 0.00 0.00 0.00 81 1007.2
20260505063104 72 184 9.0 17.0 0.00 0.00 0.00 81 1007.1
20260505062904 72 184 9.0 16.0 0.00 0.00 0.00 81 1007.2
20260505062803 72 185 10.0 16.0 0.00 0.00 0.00 81 1007.1
20260505062704 72 188 10.0 19.0 0.00 0.00 0.00 81 1007.2
20260505062604 72 188 10.0 19.0 0.00 0.00 0.00 81 1007.2
20260505062504 72 188 10.0 19.0 0.00 0.00 0.00 81 1007.3
20260505062404 72 188 10.0 19.0 0.00 0.00 0.00 81 1007.2
20260505062304 72 189 10.0 19.0 0.00 0.00 0.00 81 1007.3
20260505062204 72 189 11.0 19.0 0.00 0.00 0.00 81 1007.2
20260505062004 72 188 11.0 19.0 0.00 0.00 0.00 81 1007.3
20260505061906 72 188 11.0 20.0 0.00 0.00 0.00 81 1007.3
20260505061704 72 186 10.0 20.0 0.00 0.00 0.00 81 1007.3
20260505061605 72 185 10.0 20.0 0.00 0.00 0.00 81 1007.3
20260505061404 72 187 9.0 20.0 0.00 0.00 0.00 81 1007.3
20260505061304 72 187 9.0 20.0 0.00 0.00 0.00 81 1007.4
20260505061104 72 189 9.0 20.0 0.00 0.00 0.00 81 1007.4
20260505061004 72 189 8.0 20.0 0.00 0.00 0.00 81 1007.4
20260505060904 72 190 7.0 14.0 0.00 0.00 0.00 81 1007.4
20260505060804 72 189 7.0 14.0 0.00 0.00 0.00 81 1007.4
20260505060704 72 190 7.0 14.0 0.00 0.00 0.00 81 1007.4
20260505060604 72 190 7.0 14.0 0.00 0.00 0.00 81 1007.4
20260505060304 72 187 8.0 14.0 0.00 0.00 0.00 81 1007.5
20260505060203 72 187 8.0 17.0 0.00 0.00 0.00 81 1007.4
20260505060104 72 188 8.0 17.0 0.00 0.00 0.00 81 1007.5
20260505060004 72 189 8.0 17.0 0.00 0.00 0.00 81 1007.5
20260505055904 72 188 8.0 17.0 0.00 0.00 0.00 81 1007.5
20260505055804 72 188 8.0 17.0 0.00 0.00 0.00 81 1007.5
20260505055604 72 189 9.0 17.0 0.00 0.00 0.00 81 1007.5
20260505055504 72 190 9.0 17.0 0.00 0.00 0.00 81 1007.5
20260505055304 72 190 9.0 17.0 0.00 0.00 0.00 81 1007.5
20260505055203 72 190 9.0 17.0 0.00 0.00 0.00 81 1007.5
20260505055104 72 187 9.0 17.0 0.00 0.00 0.00 81 1007.4
20260505055004 72 188 9.0 17.0 0.00 0.00 0.00 81 1007.4
20260505054704 72 187 9.0 17.0 0.00 0.00 0.00 81 1007.3
20260505054604 72 187 9.0 17.0 0.00 0.00 0.00 81 1007.3
20260505054504 72 185 9.0 17.0 0.00 0.00 0.00 81 1007.3
20260505054304 72 184 9.0 17.0 0.00 0.00 0.00 81 1007.3
20260505053805 72 185 9.0 18.0 0.00 0.00 0.00 81 1007.3
20260505053704 72 184 9.0 18.0 0.00 0.00 0.00 81 1007.3
20260505053604 72 184 9.0 18.0 0.00 0.00 0.00 81 1007.4
20260505053504 72 185 8.0 18.0 0.00 0.00 0.00 81 1007.4
20260505053403 72 184 8.0 18.0 0.00 0.00 0.00 81 1007.5
20260505053304 72 184 8.0 18.0 0.00 0.00 0.00 81 1007.4
20260505052904 72 179 8.0 14.0 0.00 0.00 0.00 81 1007.5
20260505052804 72 178 8.0 14.0 0.00 0.00 0.00 81 1007.5
20260505052603 72 177 8.0 14.0 0.00 0.00 0.00 81 1007.4
20260505052504 72 176 8.0 14.0 0.00 0.00 0.00 81 1007.3
20260505052404 72 177 8.0 14.0 0.00 0.00 0.00 81 1007.4
20260505052104 72 179 8.0 14.0 0.00 0.00 0.00 81 1007.3
20260505051904 72 182 8.0 14.0 0.00 0.00 0.00 81 1007.3
20260505051804 72 181 9.0 14.0 0.00 0.00 0.00 81 1007.3
20260505051604 72 183 9.0 14.0 0.00 0.00 0.00 81 1007.3
20260505051504 72 183 9.0 14.0 0.00 0.00 0.00 81 1007.2
20260505051404 72 182 9.0 14.0 0.00 0.00 0.00 81 1007.3
20260505051304 72 183 9.0 14.0 0.00 0.00 0.00 80 1007.3
20260505051204 72 182 9.0 14.0 0.00 0.00 0.00 80 1007.2
20260505051105 72 183 9.0 14.0 0.00 0.00 0.00 80 1007.2
20260505051004 72 183 9.0 14.0 0.00 0.00 0.00 80 1007.2
20260505050904 72 182 9.0 14.0 0.00 0.00 0.00 80 1007.2
20260505050804 72 182 9.0 15.0 0.00 0.00 0.00 80 1007.3
20260505050704 72 181 9.0 15.0 0.00 0.00 0.00 80 1007.3
20260505050504 72 179 9.0 15.0 0.00 0.00 0.00 80 1007.3
20260505050404 72 179 9.0 15.0 0.00 0.00 0.00 80 1007.3
20260505050303 72 177 10.0 15.0 0.00 0.00 0.00 80 1007.4
20260505050204 72 177 9.0 15.0 0.00 0.00 0.00 80 1007.3
20260505050104 72 176 9.0 15.0 0.00 0.00 0.00 80 1007.2
20260505041704 73 173 8.0 15.0 0.00 0.00 0.00 78 1007.3
20260505041503 73 172 8.0 15.0 0.00 0.00 0.00 77 1007.2
20260505041404 73 173 8.0 15.0 0.00 0.00 0.00 77 1007.3
20260505041304 73 173 8.0 15.0 0.00 0.00 0.00 77 1007.2
20260505041204 73 174 8.0 15.0 0.00 0.00 0.00 77 1007.2
20260505041104 73 175 8.0 15.0 0.00 0.00 0.00 77 1007.2
20260505040904 73 176 8.0 13.0 0.00 0.00 0.00 77 1007.2
20260505040803 73 175 8.0 13.0 0.00 0.00 0.00 77 1007.3
20260505040704 73 174 8.0 12.0 0.00 0.00 0.00 77 1007.3
20260505040404 73 174 8.0 12.0 0.00 0.00 0.00 76 1007.4
20260505040303 73 173 8.0 13.0 0.00 0.00 0.00 76 1007.4
20260505040204 73 172 8.0 13.0 0.00 0.00 0.00 76 1007.5
20260505040104 73 172 8.0 13.0 0.00 0.00 0.00 76 1007.4
20260505035903 73 171 8.0 14.0 0.00 0.00 0.00 76 1007.3
20260505035703 73 172 7.0 14.0 0.00 0.00 0.00 76 1007.4
20260505035604 73 172 7.0 14.0 0.00 0.00 0.00 76 1007.4
20260505035503 73 172 7.0 14.0 0.00 0.00 0.00 76 1007.4
20260505035204 73 171 6.0 14.0 0.00 0.00 0.00 75 1007.4
20260505035104 73 170 6.0 14.0 0.00 0.00 0.00 75 1007.4
20260505035004 73 169 6.0 13.0 0.00 0.00 0.00 75 1007.4
20260505034904 73 168 6.0 13.0 0.00 0.00 0.00 75 1007.4
20260505034804 73 165 6.0 13.0 0.00 0.00 0.00 75 1007.4
20260505034704 73 164 6.0 13.0 0.00 0.00 0.00 75 1007.4
20260505034604 73 164 6.0 13.0 0.00 0.00 0.00 75 1007.5
20260505034503 73 163 6.0 10.0 0.00 0.00 0.00 75 1007.4
20260505034404 73 162 5.0 10.0 0.00 0.00 0.00 75 1007.5
20260505034103 73 156 4.0 10.0 0.00 0.00 0.00 74 1007.5
20260505034004 73 156 4.0 10.0 0.00 0.00 0.00 74 1007.4
20260505033903 73 156 4.0 10.0 0.00 0.00 0.00 74 1007.4
20260505033804 73 157 4.0 10.0 0.00 0.00 0.00 74 1007.3
20260505033603 73 157 4.0 8.0 0.00 0.00 0.00 74 1007.4
20260505033504 73 157 4.0 8.0 0.00 0.00 0.00 74 1007.4
20260505033403 73 156 4.0 8.0 0.00 0.00 0.00 73 1007.4
20260505033304 73 156 4.0 9.0 0.00 0.00 0.00 73 1007.4
20260505033203 73 156 4.0 9.0 0.00 0.00 0.00 73 1007.4
20260505033104 73 155 5.0 9.0 0.00 0.00 0.00 73 1007.4
20260505033003 73 156 5.0 9.0 0.00 0.00 0.00 73 1007.5
20260505032904 73 158 5.0 9.0 0.00 0.00 0.00 73 1007.5
20260505032703 74 160 5.0 9.0 0.00 0.00 0.00 72 1007.5
20260505032604 74 161 6.0 9.0 0.00 0.00 0.00 72 1007.6
20260505032504 74 163 6.0 9.0 0.00 0.00 0.00 72 1007.5
20260505032405 74 163 6.0 10.0 0.00 0.00 0.00 72 1007.6
20260505032304 74 165 6.0 10.0 0.00 0.00 0.00 72 1007.6
20260505032104 74 169 7.0 12.0 0.00 0.00 0.00 72 1007.5
20260505032003 74 171 7.0 12.0 0.00 0.00 0.00 72 1007.5
20260505031904 74 172 7.0 12.0 0.00 0.00 0.00 72 1007.5
20260505031804 74 172 7.0 12.0 0.00 0.00 0.00 71 1007.5
20260505031704 74 173 8.0 12.0 0.00 0.00 0.00 71 1007.5
20260505031603 74 174 8.0 12.0 0.00 0.00 0.00 71 1007.5
20260505031504 74 172 8.0 14.0 0.00 0.00 0.00 71 1007.5
20260505031403 74 171 8.0 14.0 0.00 0.00 0.00 71 1007.4
20260505031304 74 171 8.0 14.0 0.00 0.00 0.00 71 1007.4
20260505031203 74 172 8.0 14.0 0.00 0.00 0.00 71 1007.4
20260505031104 74 172 8.0 14.0 0.00 0.00 0.00 71 1007.5
20260505031003 74 171 8.0 14.0 0.00 0.00 0.00 71 1007.4
20260505030904 74 171 8.0 14.0 0.00 0.00 0.00 71 1007.4
20260505030803 74 171 8.0 14.0 0.00 0.00 0.00 71 1007.4
20260505030704 74 170 8.0 14.0 0.00 0.00 0.00 71 1007.4
20260505030603 74 170 7.0 14.0 0.00 0.00 0.00 71 1007.4
20260505030504 74 171 7.0 14.0 0.00 0.00 0.00 71 1007.4
20260505030404 74 173 7.0 11.0 0.00 0.00 0.00 71 1007.4
20260505030304 74 173 7.0 11.0 0.00 0.00 0.00 71 1007.4
20260505030203 74 173 7.0 11.0 0.00 0.00 0.00 71 1007.4
20260505030104 74 173 7.0 11.0 0.00 0.00 0.00 71 1007.5
20260505030004 74 172 6.0 11.0 0.00 0.00 0.00 70 1007.3
20260505025904 74 172 7.0 11.0 0.00 0.00 0.00 70 1007.3
20260505025803 74 173 7.0 13.0 0.00 0.00 0.00 70 1007.3
20260505025704 74 173 7.0 13.0 0.00 0.00 0.00 70 1007.3
20260505025604 74 173 7.0 13.0 0.00 0.00 0.00 70 1007.3
20260505025503 74 174 7.0 13.0 0.00 0.00 0.00 70 1007.3
20260505025404 74 173 7.0 13.0 0.00 0.00 0.00 70 1007.2
20260505025104 74 173 8.0 14.0 0.00 0.00 0.00 69 1007.1
20260505025004 74 174 8.0 14.0 0.00 0.00 0.00 69 1007.1
20260505024804 74 175 8.0 14.0 0.00 0.00 0.00 69 1007.1
20260505024703 74 174 8.0 14.0 0.00 0.00 0.00 69 1007.1
20260505024504 75 174 8.0 14.0 0.00 0.00 0.00 69 1007.2
20260505024304 75 175 7.0 14.0 0.00 0.00 0.00 69 1007.2
20260505024203 75 174 7.0 13.0 0.00 0.00 0.00 69 1007.3
20260505024104 75 174 7.0 13.0 0.00 0.00 0.00 69 1007.3
20260505024003 75 173 7.0 13.0 0.00 0.00 0.00 69 1007.3
20260505023904 75 175 8.0 13.0 0.00 0.00 0.00 68 1007.2
20260505023803 75 173 8.0 12.0 0.00 0.00 0.00 68 1007.2
20260505023704 75 174 8.0 12.0 0.00 0.00 0.00 68 1007.2
20260505023603 75 174 8.0 12.0 0.00 0.00 0.00 68 1007.2
20260505023303 75 173 8.0 12.0 0.00 0.00 0.00 68 1007.1
20260505023204 75 173 8.0 12.0 0.00 0.00 0.00 68 1007.1
20260505023105 75 173 8.0 12.0 0.00 0.00 0.00 67 1007.0
20260505023006 75 173 8.0 12.0 0.00 0.00 0.00 67 1007.0
20260505022905 75 171 8.0 12.0 0.00 0.00 0.00 67 1007.0
20260505022806 75 172 8.0 11.0 0.00 0.00 0.00 67 1007.0
20260505022705 75 173 8.0 11.0 0.00 0.00 0.00 67 1006.9
20260505022605 75 174 8.0 13.0 0.00 0.00 0.00 67 1006.9
20260505022505 75 175 8.0 13.0 0.00 0.00 0.00 67 1006.9
20260505022406 75 176 8.0 13.0 0.00 0.00 0.00 67 1006.9
20260505022206 75 176 8.0 13.0 0.00 0.00 0.00 67 1007.0
20260505022105 75 178 8.0 13.0 0.00 0.00 0.00 67 1007.0
20260505022006 75 181 8.0 13.0 0.00 0.00 0.00 67 1007.0
20260505021905 75 184 8.0 15.0 0.00 0.00 0.00 66 1007.0
20260505021807 75 186 8.0 15.0 0.00 0.00 0.00 66 1007.0
20260505021706 76 184 8.0 15.0 0.00 0.00 0.00 66 1007.0
20260505021506 76 185 7.0 15.0 0.00 0.00 0.00 66 1007.1
20260505021406 76 187 7.0 15.0 0.00 0.00 0.00 66 1007.1
20260505021305 76 187 7.0 15.0 0.00 0.00 0.00 66 1007.1
20260505021206 76 188 8.0 15.0 0.00 0.00 0.00 66 1007.1
20260505021105 76 186 8.0 15.0 0.00 0.00 0.00 66 1007.1
20260505021006 76 187 8.0 15.0 0.00 0.00 0.00 66 1007.0
20260505020905 76 186 8.0 15.0 0.00 0.00 0.00 66 1007.0
20260505020806 76 185 7.0 15.0 0.00 0.00 0.00 66 1007.0
20260505020705 76 188 8.0 13.0 0.00 0.00 0.00 66 1007.0
20260505020606 76 185 8.0 13.0 0.00 0.00 0.00 66 1006.9
20260505020505 76 186 8.0 13.0 0.00 0.00 0.00 66 1007.0
20260505020406 76 183 7.0 13.0 0.00 0.00 0.00 66 1006.9
20260505020306 76 182 7.0 13.0 0.00 0.00 0.00 66 1006.9
20260505020205 76 184 7.0 13.0 0.00 0.00 0.00 66 1006.9
20260505020106 76 185 7.0 13.0 0.00 0.00 0.00 66 1006.9
20260505020006 76 184 7.0 13.0 0.00 0.00 0.00 66 1006.8
20260505015906 76 183 7.0 13.0 0.00 0.00 0.00 66 1006.8
20260505015805 76 183 7.0 13.0 0.00 0.00 0.00 66 1006.8
20260505015706 76 182 7.0 13.0 0.00 0.00 0.00 66 1006.8
20260505015605 76 183 7.0 13.0 0.00 0.00 0.00 66 1006.8
20260505015506 76 182 7.0 13.0 0.00 0.00 0.00 66 1006.8
20260505015405 76 183 7.0 13.0 0.00 0.00 0.00 66 1006.8
20260505015306 76 184 7.0 13.0 0.00 0.00 0.00 66 1006.8
20260505015206 76 183 7.0 13.0 0.00 0.00 0.00 66 1006.8
20260505015105 76 181 7.0 13.0 0.00 0.00 0.00 66 1006.8
20260505014905 76 179 7.0 13.0 0.00 0.00 0.00 66 1006.8
20260505014806 76 178 7.0 11.0 0.00 0.00 0.00 66 1006.9
20260505014406 76 178 8.0 15.0 0.00 0.00 0.00 65 1006.8
20260505014307 76 178 8.0 15.0 0.00 0.00 0.00 65 1006.8
20260505014105 76 179 8.0 15.0 0.00 0.00 0.00 65 1006.8
20260505014006 76 179 8.0 15.0 0.00 0.00 0.00 65 1006.8
20260505013905 76 179 8.0 15.0 0.00 0.00 0.00 65 1006.8
20260505013805 76 179 8.0 15.0 0.00 0.00 0.00 65 1006.8
20260505013706 76 179 8.0 15.0 0.00 0.00 0.00 65 1006.9
20260505013605 76 178 7.0 15.0 0.00 0.00 0.00 65 1006.9
20260505013406 76 179 7.0 14.0 0.00 0.00 0.00 65 1006.9
20260505013305 76 178 7.0 14.0 0.00 0.00 0.00 65 1007.0
20260505013106 76 177 7.0 12.0 0.00 0.00 0.00 65 1007.0
20260505013006 76 177 7.0 12.0 0.00 0.00 0.00 66 1007.0
20260505012905 76 177 7.0 12.0 0.00 0.00 0.00 65 1007.0
20260505012806 76 177 7.0 12.0 0.00 0.00 0.00 65 1006.9
20260505012705 76 177 6.0 12.0 0.00 0.00 0.00 65 1006.9
20260505012606 76 177 6.0 11.0 0.00 0.00 0.00 65 1006.9
20260505012505 76 178 6.0 11.0 0.00 0.00 0.00 65 1006.9
20260505012406 76 178 6.0 11.0 0.00 0.00 0.00 65 1006.9
20260505012305 76 179 6.0 11.0 0.00 0.00 0.00 65 1006.9
20260505012207 76 182 6.0 11.0 0.00 0.00 0.00 65 1006.9
20260505012106 76 182 6.0 12.0 0.00 0.00 0.00 64 1006.8
20260505012005 77 183 6.0 12.0 0.00 0.00 0.00 64 1006.9
20260505011906 77 184 6.0 12.0 0.00 0.00 0.00 64 1006.9
20260505011705 77 187 7.0 12.0 0.00 0.00 0.00 64 1006.8
20260505011605 77 188 7.0 12.0 0.00 0.00 0.00 64 1006.8
20260505011506 77 188 8.0 14.0 0.00 0.00 0.00 64 1006.8
20260505011405 77 187 8.0 14.0 0.00 0.00 0.00 63 1006.8
20260505011305 77 187 8.0 14.0 0.00 0.00 0.00 63 1006.8
20260505011206 77 188 8.0 14.0 0.00 0.00 0.00 63 1006.9
20260505011106 77 189 8.0 14.0 0.00 0.00 0.00 63 1006.9
20260505011005 77 189 8.0 14.0 0.00 0.00 0.00 63 1006.9
20260505010906 77 189 8.0 14.0 0.00 0.00 0.00 63 1006.9
20260505010805 77 190 8.0 14.0 0.00 0.00 0.00 63 1006.9
20260505010705 77 189 8.0 14.0 0.00 0.00 0.00 63 1006.9
20260505010605 77 189 8.0 14.0 0.00 0.00 0.00 63 1006.9
20260505010406 78 190 8.0 13.0 0.00 0.00 0.00 63 1006.9
20260505010305 78 190 8.0 13.0 0.00 0.00 0.00 62 1006.9
20260505010105 78 188 8.0 15.0 0.00 0.00 0.00 62 1007.0
20260505005905 78 187 9.0 16.0 0.00 0.00 0.00 62 1007.0
20260505005805 78 186 9.0 16.0 0.00 0.00 0.00 62 1007.0
20260505005706 78 186 8.0 16.0 0.00 0.00 0.00 62 1007.0
20260505005606 78 187 9.0 16.0 0.00 0.00 0.00 62 1007.0
20260505005506 78 188 9.0 16.0 0.00 0.00 0.00 62 1007.0
20260505005406 78 188 9.0 16.0 0.00 0.00 0.00 62 1007.0
20260505005305 78 189 9.0 16.0 0.00 0.00 0.00 61 1007.0
20260505005206 78 190 9.0 16.0 0.00 0.00 0.00 61 1007.0
20260505005105 78 191 9.0 16.0 0.00 0.00 0.00 61 1007.0
20260505005006 78 191 9.0 16.0 0.00 0.00 0.00 61 1007.1
20260505004905 78 192 9.0 16.0 0.00 0.00 0.00 61 1007.0
20260505004805 78 192 9.0 18.0 0.00 0.00 0.00 61 1007.1
20260505004605 78 189 9.0 18.0 0.00 0.00 0.00 61 1007.1
20260505004206 79 183 10.0 18.0 0.00 0.00 0.00 61 1007.1
20260505004105 79 183 10.0 18.0 0.00 0.00 0.00 60 1007.0
20260505004006 79 183 10.0 18.0 0.00 0.00 0.00 60 1007.0
20260505003806 79 182 9.0 17.0 0.00 0.00 0.00 61 1006.9
20260505003705 79 185 10.0 16.0 0.00 0.00 0.00 60 1006.9
20260505003605 79 185 10.0 16.0 0.00 0.00 0.00 60 1006.9
20260505003405 79 187 10.0 16.0 0.00 0.00 0.00 60 1006.9
20260505003306 79 186 10.0 16.0 0.00 0.00 0.00 60 1006.9
20260505003105 79 188 10.0 16.0 0.00 0.00 0.00 60 1006.9
20260505003006 79 188 10.0 16.0 0.00 0.00 0.00 60 1006.9
20260505002905 79 188 10.0 16.0 0.00 0.00 0.00 60 1007.0
20260505002806 79 188 10.0 16.0 0.00 0.00 0.00 60 1007.0
20260505002705 79 186 10.0 16.0 0.00 0.00 0.00 60 1007.0
20260505002606 79 187 10.0 16.0 0.00 0.00 0.00 59 1007.0
20260505002505 79 189 10.0 16.0 0.00 0.00 0.00 59 1007.0
20260505002406 79 188 9.0 16.0 0.00 0.00 0.00 59 1007.1
20260505002206 79 190 9.0 16.0 0.00 0.00 0.00 59 1007.0
20260505002105 80 190 9.0 16.0 0.00 0.00 0.00 59 1007.0
20260505002006 80 191 8.0 16.0 0.00 0.00 0.00 59 1007.0
20260505001905 80 192 8.0 16.0 0.00 0.00 0.00 59 1006.9
20260505001805 80 192 8.0 16.0 0.00 0.00 0.00 59 1006.9
20260505001705 80 194 9.0 16.0 0.00 0.00 0.00 59 1007.0
20260505001606 80 195 9.0 16.0 0.00 0.00 0.00 59 1006.9
20260505001505 80 193 9.0 16.0 0.00 0.00 0.00 59 1006.9
20260505001406 80 192 9.0 16.0 0.00 0.00 0.00 59 1006.9
20260505001305 80 192 9.0 16.0 0.00 0.00 0.00 59 1006.9
20260505001206 80 192 9.0 16.0 0.00 0.00 0.00 59 1006.9
20260505001105 80 192 9.0 16.0 0.00 0.00 0.00 58 1006.8
20260505001006 80 191 9.0 16.0 0.00 0.00 0.00 58 1006.8
20260505000905 80 191 10.0 16.0 0.00 0.00 0.00 58 1006.8
20260505000805 80 190 10.0 16.0 0.00 0.00 0.00 58 1006.8
20260505000705 81 190 10.0 19.0 0.00 0.00 0.00 58 1006.8
20260505000605 81 189 10.0 19.0 0.00 0.00 0.00 58 1006.8
20260505000406 81 190 10.0 19.0 0.00 0.00 0.00 58 1006.8
20260505000305 81 189 10.0 19.0 0.00 0.00 0.00 58 1006.8
20260505000205 81 188 10.0 19.0 0.00 0.00 0.00 57 1006.8
20260505000105 81 188 10.0 19.0 0.00 0.00 0.00 57 1006.8
20260504235806 81 190 10.0 19.0 0.00 0.00 0.00 57 1006.9
20260504235705 81 188 10.0 17.0 0.00 0.00 0.00 57 1006.9
20260504235606 82 185 10.0 17.0 0.00 0.00 0.00 57 1007.0
20260504235505 82 183 10.0 19.0 0.00 0.00 0.00 57 1007.0
20260504235405 82 182 11.0 19.0 0.00 0.00 0.00 57 1006.9
20260504235305 82 181 12.0 20.0 0.00 0.00 0.00 57 1007.0
20260504235205 82 178 12.0 20.0 0.00 0.00 0.00 56 1007.0
20260504235005 82 178 12.0 20.0 0.00 0.00 0.00 56 1007.0
20260504234905 82 176 12.0 20.0 0.00 0.00 0.00 56 1007.0
20260504234805 82 172 12.0 20.0 0.00 0.00 0.00 56 1007.0
20260504234306 82 167 11.0 20.0 0.00 0.00 0.00 56 1007.0
20260504234205 82 165 11.0 22.0 0.00 0.00 0.00 56 1007.0
20260504233906 82 165 12.0 22.0 0.00 0.00 0.00 56 1006.9
20260504233805 82 168 12.0 22.0 0.00 0.00 0.00 56 1007.0
20260504233706 82 168 12.0 22.0 0.00 0.00 0.00 56 1006.9
20260504233605 82 169 12.0 22.0 0.00 0.00 0.00 56 1007.0
20260504233506 82 169 12.0 22.0 0.00 0.00 0.00 56 1007.0
20260504233406 82 169 12.0 22.0 0.00 0.00 0.00 56 1007.1
20260504233305 82 170 11.0 22.0 0.00 0.00 0.00 56 1007.0
20260504233206 82 171 12.0 19.0 0.00 0.00 0.00 56 1007.0
20260504233105 82 170 12.0 19.0 0.00 0.00 0.00 56 1007.0
20260504233006 82 170 12.0 19.0 0.00 0.00 0.00 56 1007.0
20260504232905 82 170 12.0 20.0 0.00 0.00 0.00 55 1007.1
20260504232705 82 172 12.0 20.0 0.00 0.00 0.00 55 1007.1
20260504232606 82 172 12.0 20.0 0.00 0.00 0.00 55 1007.2
20260504232505 82 173 12.0 20.0 0.00 0.00 0.00 55 1007.2
20260504232406 83 175 12.0 20.0 0.00 0.00 0.00 54 1007.2
20260504232305 83 175 11.0 20.0 0.00 0.00 0.00 54 1007.2
20260504232206 83 178 11.0 20.0 0.00 0.00 0.00 54 1007.2
20260504232105 83 177 11.0 20.0 0.00 0.00 0.00 54 1007.2
20260504232007 83 176 11.0 23.0 0.00 0.00 0.00 54 1007.2
20260504231905 83 177 11.0 23.0 0.00 0.00 0.00 54 1007.2
20260504231705 83 176 11.0 23.0 0.00 0.00 0.00 54 1007.2
20260504231505 83 176 12.0 23.0 0.00 0.00 0.00 54 1007.2
20260504231305 83 175 12.0 23.0 0.00 0.00 0.00 55 1007.2
20260504231105 83 173 12.0 23.0 0.00 0.00 0.00 54 1007.2
20260504231006 83 175 12.0 23.0 0.00 0.00 0.00 54 1007.2
20260504230905 83 174 12.0 23.0 0.00 0.00 0.00 54 1007.2
20260504230705 83 170 11.0 23.0 0.00 0.00 0.00 54 1007.2
20260504230605 83 169 11.0 23.0 0.00 0.00 0.00 54 1007.2
20260504230505 83 168 11.0 23.0 0.00 0.00 0.00 53 1007.2
20260504230405 84 168 11.0 23.0 0.00 0.00 0.00 54 1007.2
20260504230306 83 167 12.0 21.0 0.00 0.00 0.00 54 1007.2
20260504230205 83 168 12.0 21.0 0.00 0.00 0.00 54 1007.2
20260504230106 83 170 12.0 21.0 0.00 0.00 0.00 54 1007.2
20260504230005 83 170 12.0 21.0 0.00 0.00 0.00 54 1007.1
20260504225905 83 172 12.0 21.0 0.00 0.00 0.00 54 1007.0
20260504225806 83 174 12.0 21.0 0.00 0.00 0.00 54 1007.1
20260504225705 83 176 12.0 21.0 0.00 0.00 0.00 54 1007.1
20260504225606 83 176 12.0 21.0 0.00 0.00 0.00 54 1007.2
20260504225505 83 176 11.0 21.0 0.00 0.00 0.00 54 1007.2
20260504225406 83 178 11.0 21.0 0.00 0.00 0.00 54 1007.2
20260504225207 84 182 10.0 20.0 0.00 0.00 0.00 54 1007.2
20260504225105 84 182 10.0 20.0 0.00 0.00 0.00 54 1007.1
20260504224705 84 186 10.0 20.0 0.00 0.00 0.00 53 1007.3
20260504224605 84 187 10.0 20.0 0.00 0.00 0.00 53 1007.2
20260504224505 84 187 10.0 20.0 0.00 0.00 0.00 53 1007.3
20260504224405 84 186 10.0 18.0 0.00 0.00 0.00 54 1007.2
20260504224305 84 184 10.0 18.0 0.00 0.00 0.00 55 1007.2
20260504224205 84 182 10.0 18.0 0.00 0.00 0.00 55 1007.2
20260504224105 84 181 11.0 18.0 0.00 0.00 0.00 55 1007.2
20260504224005 84 178 11.0 18.0 0.00 0.00 0.00 54 1007.2
20260504223906 83 175 11.0 18.0 0.00 0.00 0.00 54 1007.2
20260504223805 84 171 11.0 18.0 0.00 0.00 0.00 55 1007.3
20260504223705 83 170 11.0 18.0 0.00 0.00 0.00 55 1007.3
20260504223605 83 169 10.0 18.0 0.00 0.00 0.00 54 1007.4
20260504223405 83 162 10.0 18.0 0.00 0.00 0.00 55 1007.5
20260504223206 83 161 10.0 18.0 0.00 0.00 0.00 55 1007.5
20260504223105 83 160 11.0 18.0 0.00 0.00 0.00 55 1007.5
20260504223005 83 162 10.0 19.0 0.00 0.00 0.00 54 1007.4
20260504222905 83 163 11.0 19.0 0.00 0.00 0.00 54 1007.4
20260504222806 83 166 11.0 20.0 0.00 0.00 0.00 54 1007.4
20260504222705 83 168 11.0 20.0 0.00 0.00 0.00 54 1007.5
20260504222605 83 170 11.0 20.0 0.00 0.00 0.00 54 1007.5
20260504222505 83 171 11.0 20.0 0.00 0.00 0.00 54 1007.5
20260504222405 84 174 11.0 20.0 0.00 0.00 0.00 54 1007.6
20260504222306 84 175 11.0 20.0 0.00 0.00 0.00 54 1007.6
20260504222205 84 176 10.0 20.0 0.00 0.00 0.00 54 1007.6
20260504222105 84 177 10.0 20.0 0.00 0.00 0.00 54 1007.6
20260504222005 84 176 11.0 20.0 0.00 0.00 0.00 54 1007.6
20260504221905 84 175 11.0 20.0 0.00 0.00 0.00 54 1007.8
20260504221805 84 177 11.0 19.0 0.00 0.00 0.00 53 1007.7
20260504221605 84 177 10.0 19.0 0.00 0.00 0.00 54 1007.8
20260504221505 84 182 10.0 19.0 0.00 0.00 0.00 55 1007.8
20260504221405 84 182 11.0 19.0 0.00 0.00 0.00 54 1007.8
20260504221305 84 183 11.0 19.0 0.00 0.00 0.00 55 1007.8
20260504221205 83 184 11.0 19.0 0.00 0.00 0.00 54 1007.8
20260504221105 83 185 11.0 19.0 0.00 0.00 0.00 54 1007.8
20260504221005 83 185 11.0 19.0 0.00 0.00 0.00 54 1007.8
20260504220905 83 188 11.0 19.0 0.00 0.00 0.00 54 1007.8
20260504220805 83 187 12.0 19.0 0.00 0.00 0.00 54 1007.8
20260504220705 83 186 12.0 22.0 0.00 0.00 0.00 54 1007.7
20260504220506 83 184 12.0 23.0 0.00 0.00 0.00 54 1007.8
20260504220405 83 186 12.0 23.0 0.00 0.00 0.00 54 1007.8
20260504220306 83 186 12.0 23.0 0.00 0.00 0.00 54 1007.8
20260504220206 83 185 12.0 23.0 0.00 0.00 0.00 54 1007.8
20260504220107 83 186 12.0 23.0 0.00 0.00 0.00 53 1007.8
20260504215905 84 192 12.0 23.0 0.00 0.00 0.00 52 1007.8
20260504215805 84 194 12.0 23.0 0.00 0.00 0.00 53 1007.9
20260504215705 84 197 11.0 23.0 0.00 0.00 0.00 53 1007.9
20260504215505 84 199 11.0 18.0 0.00 0.00 0.00 53 1007.9
20260504215405 84 197 11.0 18.0 0.00 0.00 0.00 52 1007.9
20260504215305 84 197 11.0 18.0 0.00 0.00 0.00 52 1007.9
20260504215206 84 199 12.0 18.0 0.00 0.00 0.00 53 1007.9
20260504215105 84 196 12.0 18.0 0.00 0.00 0.00 54 1007.9
20260504215006 84 194 11.0 18.0 0.00 0.00 0.00 53 1007.9
20260504214905 84 192 11.0 18.0 0.00 0.00 0.00 54 1007.9
20260504214806 84 191 11.0 18.0 0.00 0.00 0.00 54 1008.0
20260504214705 83 187 11.0 18.0 0.00 0.00 0.00 54 1008.0
20260504214606 83 187 11.0 18.0 0.00 0.00 0.00 54 1008.0
20260504214406 84 184 11.0 18.0 0.00 0.00 0.00 53 1007.9
20260504214305 84 182 10.0 18.0 0.00 0.00 0.00 53 1008.0
20260504214206 84 178 10.0 18.0 0.00 0.00 0.00 53 1008.0
20260504214105 84 181 10.0 18.0 0.00 0.00 0.00 54 1008.0
20260504214007 84 182 10.0 18.0 0.00 0.00 0.00 54 1007.9
20260504213905 83 181 10.0 18.0 0.00 0.00 0.00 53 1007.9
20260504213805 84 182 9.0 18.0 0.00 0.00 0.00 55 1008.0
20260504213705 83 183 10.0 17.0 0.00 0.00 0.00 54 1007.9
20260504213405 83 186 10.0 15.0 0.00 0.00 0.00 54 1008.1
20260504213305 83 191 10.0 22.0 0.00 0.00 0.00 53 1008.0
20260504213206 84 192 10.0 22.0 0.00 0.00 0.00 53 1008.1
20260504213105 84 192 10.0 22.0 0.00 0.00 0.00 53 1008.2
20260504213005 84 193 11.0 22.0 0.00 0.00 0.00 53 1008.1
20260504212905 84 191 11.0 22.0 0.00 0.00 0.00 53 1008.2
20260504212805 84 187 11.0 25.0 0.00 0.00 0.00 53 1008.2
20260504212707 84 184 11.0 25.0 0.00 0.00 0.00 53 1008.3
20260504212605 84 181 12.0 25.0 0.00 0.00 0.00 54 1008.2
20260504212505 84 177 12.0 25.0 0.00 0.00 0.00 54 1008.2
20260504212405 84 174 12.0 25.0 0.00 0.00 0.00 53 1008.3
20260504212306 84 174 12.0 25.0 0.00 0.00 0.00 54 1008.3
20260504212205 84 173 13.0 25.0 0.00 0.00 0.00 54 1008.4
20260504212105 83 173 13.0 25.0 0.00 0.00 0.00 54 1008.3
20260504212005 84 172 12.0 25.0 0.00 0.00 0.00 54 1008.3
20260504211904 83 172 12.0 25.0 0.00 0.00 0.00 53 1008.2
20260504211805 83 175 11.0 20.0 0.00 0.00 0.00 53 1008.2
20260504211505 84 186 10.0 18.0 0.00 0.00 0.00 53 1008.5
20260504211405 84 189 10.0 20.0 0.00 0.00 0.00 53 1008.5
20260504211305 84 189 10.0 20.0 0.00 0.00 0.00 53 1008.5
20260504211205 84 188 9.0 20.0 0.00 0.00 0.00 52 1008.5
20260504211105 85 191 9.0 20.0 0.00 0.00 0.00 53 1008.5
20260504210905 84 192 9.0 20.0 0.00 0.00 0.00 53 1008.5
20260504210806 84 191 9.0 20.0 0.00 0.00 0.00 55 1008.6
20260504210705 84 188 10.0 20.0 0.00 0.00 0.00 55 1008.6
20260504210606 84 186 10.0 20.0 0.00 0.00 0.00 55 1008.6
20260504210505 84 184 11.0 20.0 0.00 0.00 0.00 55 1008.7
20260504210105 82 175 11.0 20.0 0.00 0.00 0.00 55 1008.7
20260504210005 82 174 11.0 20.0 0.00 0.00 0.00 55 1008.8
20260504205905 82 174 11.0 20.0 0.00 0.00 0.00 55 1008.9
20260504205705 82 175 12.0 20.0 0.00 0.00 0.00 54 1008.7
20260504205606 82 178 12.0 20.0 0.00 0.00 0.00 55 1008.8
20260504205505 82 181 11.0 20.0 0.00 0.00 0.00 55 1008.8
20260504205406 82 184 11.0 18.0 0.00 0.00 0.00 55 1008.8
20260504205305 82 186 11.0 18.0 0.00 0.00 0.00 55 1008.8
20260504205206 82 186 11.0 20.0 0.00 0.00 0.00 55 1008.9
20260504205105 82 186 11.0 20.0 0.00 0.00 0.00 55 1008.9
20260504204806 83 195 11.0 21.0 0.00 0.00 0.00 54 1009.1
20260504204705 83 197 11.0 21.0 0.00 0.00 0.00 55 1009.0
20260504204605 83 198 11.0 21.0 0.00 0.00 0.00 54 1009.1
20260504204305 83 196 12.0 22.0 0.00 0.00 0.00 54 1009.2
20260504204205 82 194 12.0 22.0 0.00 0.00 0.00 55 1009.2
20260504204105 82 193 12.0 22.0 0.00 0.00 0.00 55 1009.1
20260504203806 83 189 12.0 22.0 0.00 0.00 0.00 55 1009.1
20260504203705 82 189 12.0 22.0 0.00 0.00 0.00 54 1009.2
20260504203605 82 188 12.0 22.0 0.00 0.00 0.00 54 1009.3
20260504203505 82 187 12.0 22.0 0.00 0.00 0.00 54 1009.3
20260504203405 82 188 12.0 20.0 0.00 0.00 0.00 54 1009.3
20260504203306 82 190 11.0 20.0 0.00 0.00 0.00 54 1009.2
20260504203105 82 193 11.0 20.0 0.00 0.00 0.00 54 1009.3
20260504203005 82 192 11.0 20.0 0.00 0.00 0.00 54 1009.3
20260504202905 82 191 11.0 20.0 0.00 0.00 0.00 54 1009.3
20260504202805 82 189 11.0 20.0 0.00 0.00 0.00 55 1009.4
20260504202705 82 188 11.0 20.0 0.00 0.00 0.00 54 1009.4
20260504202605 82 188 11.0 20.0 0.00 0.00 0.00 55 1009.5
20260504202405 82 189 10.0 19.0 0.00 0.00 0.00 55 1009.6
20260504202305 82 189 11.0 19.0 0.00 0.00 0.00 55 1009.6
20260504202205 82 192 11.0 20.0 0.00 0.00 0.00 54 1009.6
20260504202105 82 192 11.0 20.0 0.00 0.00 0.00 55 1009.6
20260504202005 82 193 12.0 20.0 0.00 0.00 0.00 56 1009.6
20260504201904 82 192 12.0 20.0 0.00 0.00 0.00 55 1009.6
20260504201805 82 192 12.0 20.0 0.00 0.00 0.00 55 1009.6
20260504201705 82 194 12.0 20.0 0.00 0.00 0.00 55 1009.6
20260504201605 82 195 12.0 20.0 0.00 0.00 0.00 56 1009.6
20260504201506 82 194 11.0 20.0 0.00 0.00 0.00 56 1009.6
20260504201406 82 193 12.0 20.0 0.00 0.00 0.00 55 1009.6
20260504201305 82 192 11.0 20.0 0.00 0.00 0.00 54 1009.6
20260504201204 82 189 11.0 20.0 0.00 0.00 0.00 56 1009.7
20260504201105 82 187 11.0 19.0 0.00 0.00 0.00 56 1009.7
20260504201006 82 188 11.0 18.0 0.00 0.00 0.00 56 1009.7
20260504200905 82 189 10.0 18.0 0.00 0.00 0.00 56 1009.8
20260504200806 82 187 10.0 18.0 0.00 0.00 0.00 56 1009.8
20260504200705 82 186 10.0 18.0 0.00 0.00 0.00 56 1009.8
20260504200604 82 184 11.0 18.0 0.00 0.00 0.00 56 1009.8
20260504200506 81 183 11.0 18.0 0.00 0.00 0.00 56 1009.9
20260504200305 81 181 11.0 18.0 0.00 0.00 0.00 56 1010.0
20260504200105 81 184 11.0 18.0 0.00 0.00 0.00 56 1010.0
20260504200005 81 184 11.0 18.0 0.00 0.00 0.00 56 1010.1
20260504195806 81 187 11.0 20.0 0.00 0.00 0.00 57 1010.1
20260504195605 81 189 11.0 20.0 0.00 0.00 0.00 56 1010.1
20260504195505 81 192 11.0 20.0 0.00 0.00 0.00 56 1010.1
20260504195405 81 194 11.0 20.0 0.00 0.00 0.00 55 1010.1
20260504195305 81 198 11.0 20.0 0.00 0.00 0.00 56 1010.1
20260504195205 81 200 11.0 20.0 0.00 0.00 0.00 56 1010.2
20260504195104 81 199 11.0 20.0 0.00 0.00 0.00 56 1010.2
20260504195005 81 197 11.0 20.0 0.00 0.00 0.00 56 1010.2
20260504194905 81 194 11.0 20.0 0.00 0.00 0.00 56 1010.2
20260504194805 81 192 11.0 19.0 0.00 0.00 0.00 56 1010.2
20260504194704 81 193 11.0 19.0 0.00 0.00 0.00 55 1010.2
20260504194605 82 189 10.0 19.0 0.00 0.00 0.00 56 1010.3
20260504194505 82 184 10.0 19.0 0.00 0.00 0.00 55 1010.3
20260504194305 82 181 11.0 19.0 0.00 0.00 0.00 57 1010.5
20260504194205 81 178 12.0 19.0 0.00 0.00 0.00 57 1010.5
20260504194105 81 177 12.0 23.0 0.00 0.00 0.00 56 1010.5
20260504194005 80 178 12.0 23.0 0.00 0.00 0.00 58 1010.5
20260504193905 80 177 12.0 23.0 0.00 0.00 0.00 57 1010.5
20260504193804 80 179 12.0 23.0 0.00 0.00 0.00 57 1010.4
20260504193705 80 179 12.0 23.0 0.00 0.00 0.00 55 1010.4
20260504193605 80 184 12.0 23.0 0.00 0.00 0.00 55 1010.4
20260504193505 80 186 12.0 23.0 0.00 0.00 0.00 55 1010.4
20260504193406 80 186 12.0 23.0 0.00 0.00 0.00 55 1010.5
20260504193305 80 186 12.0 23.0 0.00 0.00 0.00 55 1010.5
20260504193206 81 185 12.0 23.0 0.00 0.00 0.00 55 1010.5
20260504193105 81 188 11.0 20.0 0.00 0.00 0.00 56 1010.5
20260504193005 81 191 11.0 19.0 0.00 0.00 0.00 56 1010.6
20260504192905 81 194 12.0 19.0 0.00 0.00 0.00 57 1010.6
20260504192805 81 194 12.0 20.0 0.00 0.00 0.00 57 1010.6
20260504192705 81 195 12.0 20.0 0.00 0.00 0.00 57 1010.7
20260504192605 81 192 12.0 20.0 0.00 0.00 0.00 57 1010.7
20260504192505 80 192 11.0 20.0 0.00 0.00 0.00 57 1010.6
20260504192406 80 193 11.0 20.0 0.00 0.00 0.00 58 1010.6
20260504192305 80 194 11.0 20.0 0.00 0.00 0.00 56 1010.6
20260504192106 81 196 11.0 20.0 0.00 0.00 0.00 56 1010.6
20260504192005 81 198 11.0 20.0 0.00 0.00 0.00 56 1010.7
20260504191904 81 198 11.0 20.0 0.00 0.00 0.00 56 1010.7
20260504191805 81 201 11.0 18.0 0.00 0.00 0.00 56 1010.8
20260504191705 81 200 11.0 19.0 0.00 0.00 0.00 56 1010.8
20260504191605 81 204 11.0 19.0 0.00 0.00 0.00 57 1010.9
20260504191405 81 208 11.0 21.0 0.00 0.00 0.00 57 1010.8
20260504191305 81 209 11.0 21.0 0.00 0.00 0.00 57 1010.9
20260504191206 81 211 12.0 21.0 0.00 0.00 0.00 57 1010.7
20260504191105 81 208 12.0 21.0 0.00 0.00 0.00 57 1010.8
20260504191005 80 207 12.0 21.0 0.00 0.00 0.00 57 1010.8
20260504190705 80 202 11.0 21.0 0.00 0.00 0.00 57 1010.9
20260504190605 80 201 11.0 21.0 0.00 0.00 0.00 57 1010.8
20260504190505 80 199 11.0 19.0 0.00 0.00 0.00 57 1010.9
20260504190405 80 197 11.0 19.0 0.00 0.00 0.00 58 1010.9
20260504190305 80 196 11.0 19.0 0.00 0.00 0.00 56 1010.8
20260504190204 80 198 11.0 19.0 0.00 0.00 0.00 56 1010.9
20260504190105 80 200 11.0 21.0 0.00 0.00 0.00 56 1010.8
20260504190005 81 197 11.0 21.0 0.00 0.00 0.00 56 1010.9
20260504185905 80 194 11.0 21.0 0.00 0.00 0.00 58 1010.9
20260504185806 80 195 11.0 21.0 0.00 0.00 0.00 58 1010.9
20260504185705 80 195 11.0 21.0 0.00 0.00 0.00 58 1011.0
20260504185504 80 193 12.0 21.0 0.00 0.00 0.00 58 1011.1
20260504185405 80 193 13.0 21.0 0.00 0.00 0.00 58 1011.1
20260504185305 80 193 12.0 21.0 0.00 0.00 0.00 57 1011.0
20260504185207 80 190 12.0 21.0 0.00 0.00 0.00 58 1011.0
20260504185104 80 189 13.0 21.0 0.00 0.00 0.00 58 1010.9
20260504185005 79 187 12.0 21.0 0.00 0.00 0.00 58 1011.0
20260504184905 79 186 12.0 21.0 0.00 0.00 0.00 58 1011.0
20260504184705 79 186 12.0 21.0 0.00 0.00 0.00 58 1011.1
20260504184607 79 183 12.0 21.0 0.00 0.00 0.00 58 1011.1
20260504184505 79 181 11.0 18.0 0.00 0.00 0.00 58 1011.1
20260504184405 79 181 10.0 18.0 0.00 0.00 0.00 58 1011.2
20260504184305 79 181 10.0 18.0 0.00 0.00 0.00 58 1011.2
20260504184105 79 181 9.0 17.0 0.00 0.00 0.00 58 1011.0
20260504183905 79 187 10.0 18.0 0.00 0.00 0.00 57 1011.1
20260504183804 80 185 10.0 19.0 0.00 0.00 0.00 57 1011.2
20260504183705 80 187 10.0 20.0 0.00 0.00 0.00 57 1011.1
20260504183605 80 190 10.0 20.0 0.00 0.00 0.00 61 1011.2
20260504183506 80 188 11.0 20.0 0.00 0.00 0.00 61 1011.2
20260504183405 80 187 11.0 20.0 0.00 0.00 0.00 61 1011.2
20260504183305 79 184 11.0 20.0 0.00 0.00 0.00 61 1011.3
20260504183204 79 182 11.0 20.0 0.00 0.00 0.00 60 1011.2
20260504183105 78 183 12.0 20.0 0.00 0.00 0.00 61 1011.3
20260504183005 78 182 11.0 20.0 0.00 0.00 0.00 59 1011.3
20260504182705 78 181 11.0 18.0 0.00 0.00 0.00 60 1011.4
20260504182605 78 182 11.0 18.0 0.00 0.00 0.00 60 1011.4
20260504182405 78 184 12.0 19.0 0.00 0.00 0.00 61 1011.5
20260504182204 77 186 12.0 19.0 0.00 0.00 0.00 61 1011.5
20260504182105 77 185 12.0 19.0 0.00 0.00 0.00 60 1011.6
20260504182004 77 188 12.0 19.0 0.00 0.00 0.00 61 1011.6
20260504181908 77 187 12.0 20.0 0.00 0.00 0.00 61 1011.6
20260504181804 77 187 12.0 20.0 0.00 0.00 0.00 61 1011.5
20260504181705 77 189 12.0 20.0 0.00 0.00 0.00 61 1011.6
20260504181505 77 191 12.0 21.0 0.00 0.00 0.00 61 1011.6
20260504181305 78 196 12.0 21.0 0.00 0.00 0.00 60 1011.7
20260504181204 78 200 12.0 21.0 0.00 0.00 0.00 61 1011.7
20260504181106 78 201 11.0 21.0 0.00 0.00 0.00 61 1011.7
20260504180905 78 199 11.0 21.0 0.00 0.00 0.00 59 1011.7
20260504180805 78 201 11.0 21.0 0.00 0.00 0.00 60 1011.7
20260504180705 78 201 10.0 21.0 0.00 0.00 0.00 59 1011.8
20260504180505 78 200 10.0 19.0 0.00 0.00 0.00 58 1011.8
20260504180404 78 194 10.0 17.0 0.00 0.00 0.00 61 1011.9
20260504180205 77 188 10.0 17.0 0.00 0.00 0.00 61 1011.8
20260504180105 77 190 11.0 17.0 0.00 0.00 0.00 61 1011.8
20260504180005 77 192 11.0 18.0 0.00 0.00 0.00 63 1011.7
20260504175905 76 195 11.0 18.0 0.00 0.00 0.00 62 1011.8
20260504175805 76 196 11.0 19.0 0.00 0.00 0.00 62 1011.8
20260504175705 76 198 12.0 19.0 0.00 0.00 0.00 62 1011.8
20260504175605 76 199 13.0 19.0 0.00 0.00 0.00 62 1011.8
20260504175505 76 199 13.0 21.0 0.00 0.00 0.00 61 1011.8
20260504175405 76 201 12.0 21.0 0.00 0.00 0.00 61 1011.8
20260504175304 76 204 12.0 21.0 0.00 0.00 0.00 61 1011.9
20260504175205 76 205 12.0 21.0 0.00 0.00 0.00 60 1011.9
20260504175105 77 203 12.0 21.0 0.00 0.00 0.00 60 1011.9
20260504175005 77 202 12.0 21.0 0.00 0.00 0.00 60 1011.9
20260504174905 77 201 11.0 21.0 0.00 0.00 0.00 60 1012.0
20260504174805 78 200 11.0 21.0 0.00 0.00 0.00 60 1011.9
20260504174705 78 198 11.0 21.0 0.00 0.00 0.00 60 1012.0
20260504174605 78 196 10.0 21.0 0.00 0.00 0.00 60 1012.1
20260504174505 77 196 10.0 21.0 0.00 0.00 0.00 62 1012.0
20260504174404 77 195 10.0 19.0 0.00 0.00 0.00 62 1012.0
20260504174305 76 195 10.0 19.0 0.00 0.00 0.00 61 1012.0
20260504174204 76 197 10.0 19.0 0.00 0.00 0.00 61 1012.0
20260504174105 76 197 10.0 19.0 0.00 0.00 0.00 62 1012.0
20260504174004 76 197 10.0 18.0 0.00 0.00 0.00 62 1012.0
20260504173905 76 195 10.0 18.0 0.00 0.00 0.00 62 1012.0
20260504173805 76 195 10.0 18.0 0.00 0.00 0.00 63 1012.1
20260504173705 76 196 10.0 18.0 0.00 0.00 0.00 63 1012.1
20260504173604 76 197 11.0 20.0 0.00 0.00 0.00 63 1012.2
20260504173405 76 195 12.0 20.0 0.00 0.00 0.00 62 1012.2
20260504173305 76 194 12.0 20.0 0.00 0.00 0.00 62 1012.2
20260504173205 76 192 13.0 20.0 0.00 0.00 0.00 61 1012.2
20260504173105 76 192 12.0 21.0 0.00 0.00 0.00 61 1012.1
20260504173005 77 192 12.0 21.0 0.00 0.00 0.00 60 1012.2
20260504172905 77 194 12.0 21.0 0.00 0.00 0.00 60 1012.2
20260504172605 78 199 11.0 21.0 0.00 0.00 0.00 59 1012.2
20260504172305 78 204 10.0 21.0 0.00 0.00 0.00 60 1012.3
20260504172105 77 204 10.0 17.0 0.00 0.00 0.00 62 1012.3
20260504172004 76 203 10.0 18.0 0.00 0.00 0.00 62 1012.2
20260504171905 76 204 10.0 19.0 0.00 0.00 0.00 62 1012.3
20260504171706 76 201 10.0 19.0 0.00 0.00 0.00 61 1012.3
20260504171506 76 200 10.0 19.0 0.00 0.00 0.00 59 1012.3
20260504171405 77 200 10.0 19.0 0.00 0.00 0.00 59 1012.4
20260504171305 77 201 10.0 19.0 0.00 0.00 0.00 59 1012.4
20260504171205 78 201 10.0 19.0 0.00 0.00 0.00 60 1012.5